Vertical_Velocity
1 2 2 2 -2 -1 -1 -2 -4 -0 -1 -0 -1 -2 3 -5 2 8 -2 0 -2 -1 -0 -0 -2 1 1 1 0 -1 -1 -0 0 -0 0 -1 -0 -0 -2 -2 -1 1 -1 -1 -0 -1 -1 -0 0
0 1 1 2 0 1 -2 -1 0 1 -1 -1 1 0 1 -1 0 -1 -1 1 0 -1 -1 -1 -1 -1 2 1 1 1 -0 -0 -1 1 1 -1 0 -0 1 -1 -1 1 1 0 0 -1 -1 -0 1
1 1 4 1 -3 -2 3 0 1 -1 -0 -0 -1 -2 0 -3 0 -1 -1 -1 0 -1 -1 -1 -1 -1 -0 1 -0 1 1 1 -0 -0 0 -0 0 -1 -0 0 -0 1 0 0 2 -0 1 -1 1
-0 2 4 -1 -0 -3 -0 -0 -1 -1 -0 -1 -1 1 -1 -0 -1 -1 0 -0 -1 -0 -1 -1 0 -1 -1 -1 -1 -0 0 0 1 0 0 1 1 1 -0 1 0 -1 -0 -0 1 1 0 0 1
-0 3 1 -2 -2 -2 -1 -1 -1 1 1 1 -1 -1 1 -0 -0 -1 -1 -0 -1 -0 -2 -1 -1 -0 -2 -1 -1 0 0 -0 -0 0 1 1 1 0 -1 -0 1 -1 -1 -1 -1 -0 2 0 -0
-1 0 1 -3 -1 1 -1 -1 -0 -0 -1 -1 -1 1 -1 1 -1 -2 -1 -1 -0 0 -1 -1 0 -0 -1 -0 -1 -2 1 1 -0 1 -1 0 -0 0 0 -0 0 2 1 -1 1 -1 0 2 0
0 1 -1 -1 -1 -1 0 -0 -2 3 1 0 -2 -0 -2 -0 -2 -3 -2 -1 -1 0 0 -0 0 -0 -0 0 1 -1 -0 1 -0 1 1 -1 -1 1 0 0 0 -0 -0 1 1 -1 -0 1 1
1 2 -3 -4 -1 -2 0 -1 3 -1 4 -0 -1 -4 2 -2 -1 -1 0 0 0 1 -0 -0 -0 1 1 1 0 -0 -1 2 0 -0 0 1 0 -1 -0 0 1 2 -0 1 -0 -1 2 0 1
4 1 -6 -7 1 -1 -1 -1 4 -1 -0 -0 1 1 0 -1 -1 0 1 1 1 0 0 0 -0 1 0 1 1 1 1 1 0 -1 0 -1 -0 -1 -1 -0 -0 1 1 1 -0 -1 1 0 2
0 -5 -8 -4 1 -0 -0 -0 2 1 0 -1 -0 1 2 0 -2 -0 0 0 -0 -0 -1 -1 0 -1 0 -1 2 1 -1 -2 -0 0 2 1 0 -1 -1 -0 0 0 0 1 0 1 -0 -2 1
-4 -16 2 2 -0 -1 -1 -1 -2 0 -6 1 8 4 -2 -4 -2 -0 1 1 1 0 2 1 1 -1 -0 -1 -0 0 3 5 7 -4 3 1 -0 -0 -0 -1 0 1 -1 0 2 1 1 -0 -0
-7 -2 2 2 -0 -1 -1 -0 -2 -1 2 3 -1 -2 -2 -1 -1 -1 0 -1 -1 -1 -2 1 1 -1 0 -1 -2 -1 3 3 2 6 1 1 0 1 1 1 1 0 -1 1 -1 1 1 0 1
-3 3 2 3 3 0 -1 -1 -1 -9 3 2 1 1 -1 -1 0 -1 0 -1 -1 -1 1 -1 -1 0 1 -2 -0 -1 -1 -0 5 3 1 0 0 0 1 1 2 0 1 1 1 1 1 -0 -0
-5 5 2 3 2 -1 -2 2 -1 -4 5 -1 2 5 2 -2 -1 -4 -3 1 -2 2 0 -1 -2 -0 -2 1 0 1 -1 1 4 6 0 -1 1 1 1 1 2 -0 0 3 -0 1 2 2 -1
-3 1 1 -2 2 -2 2 -5 -33 12 0 -1 1 0 1 2 -2 -3 -2 -5 -2 -1 -0 -3 -2 -1 -1 -0 1 -1 1 1 0 1 0 -1 -2 1 2 2 1 0 -1 2 -0 -0 -0 -1 -0
2 2 7 -1 3 -5 8 -21 -3 -2 1 5 3 0 -2 3 1 0 -0 -3 -3 -2 -0 0 -2 -0 -0 2 1 1 0 -0 0 -1 -0 -0 -2 -1 1 2 3 0 -1 3 -0 -0 -2 1 -1
4 -0 0 7 -5 -1 -1 5 -2 1 0 -3 -0 -0 0 2 -0 1 2 1 -1 -1 -0 -0 -1 -0 1 2 1 1 2 -2 -0 1 -1 -1 -1 0 -1 -2 3 -0 -3 1 1 1 -0 0 1
-5 -9 -2 -2 -6 2 1 12 1 -1 -0 -1 -0 2 1 -0 6 1 -3 -1 -1 -0 -2 -2 -1 0 0 2 -1 0 -0 -1 -0 0 1 1 0 0 -3 12 -1 3 -3 -4 1 1 1 2 1
13 10 2 3 -6 -2 2 12 2 0 -1 -0 2 -8 -6 -5 -2 -3 -3 0 -1 -1 -0 3 2 5 -0 -0 2 1 -0 2 1 1 2 1 -0 0 -1 -0 11 1 3 10 0 -0 1 -1 0
3 4 -1 11 0 0 2 1 -1 3 4 -6 -2 -4 -5 -4 -1 -0 1 4 -2 -2 -4 -3 -2 -2 -2 1 4 -2 2 4 4 3 1 -1 -2 -1 -4 -1 0 -4 0 9 -4 2 2 -2 -5
-0 -3 7 5 1 3 1 -10 2 -6 -5 -3 -4 -4 -5 -6 -4 -4 0 3 1 -3 -1 1 4 1 0 2 1 -2 -3 -0 -5 -0 -3 -2 -0 1 1 -1 1 2 -4 0 5 0 0 3 3
7 10 4 -0 1 -4 -4 -8 3 -3 1 1 -2 -4 -3 -2 -3 -2 -1 1 1 -0 1 3 5 1 1 1 -1 -1 4 5 5 6 3 0 -2 -2 -1 -0 2 2 4 0 8 11 -3 0 0
-25 6 -1 5 3 6 -1 10 8 6 2 2 -2 -3 -3 -0 -1 -3 -0 -1 3 2 2 2 2 0 1 2 4 2 -1 2 1 -3 0 -0 -1 -3 -1 -1 -1 -1 -2 0 -0 2 8 -0 -4
6 2 6 16 10 9 -8 0 16 4 3 -1 -0 -1 -1 -0 1 -1 1 2 0 2 2 3 2 1 1 2 3 0 1 -0 -1 1 -1 -0 2 2 0 1 -1 -0 -1 2 -1 -1 -5 6 -5
16 2 6 14 12 -9 -2 11 15 1 3 2 1 -1 0 -0 1 1 -0 2 3 1 1 2 2 1 2 3 3 0 0 -1 -0 0 0 -2 -1 1 -1 2 0 0 -4 -4 -1 -3 -0 -3 -6
2 -10 -11 -9 -3 -9 -2 1 5 1 2 2 2 2 0 3 0 3 3 2 2 1 2 2 4 2 3 4 1 1 -1 -1 1 0 2 0 -2 -2 0 -1 1 2 1 4 -4 2 -1 -3 -1
3 24 -14 1 -4 10 1 3 4 5 4 2 1 3 2 2 3 2 6 3 3 2 2 4 0 5 -1 -2 2 1 0 -1 -1 -0 -1 -1 0 -2 -4 0 1 1 7 4 -3 -1 2 2 -0
-2 29 15 2 1 4 7 0 4 4 3 2 1 3 3 2 3 1 2 4 2 3 1 2 3 1 2 0 -2 -1 1 2 1 1 -1 -2 -2 -1 -2 1 1 1 -2 -8 13 19 0 2 8
17 8 7 9 3 -7 -2 9 11 -1 0 3 2 2 4 4 3 4 1 4 3 -0 2 1 0 -0 -0 -2 -1 -3 1 1 -3 -5 -3 -2 -5 -4 -3 -3 2 2 -3 1 26 -4 3 14 10
-2 6 6 4 8 -1 3 13 2 4 1 1 1 1 1 5 2 4 1 2 4 1 1 1 1 1 -3 -2 -1 0 -3 -1 2 -1 -3 -3 -2 -0 -2 -5 10 6 5 2 2 1 5 9 -5
Height
3127 3129 3133 3136 3144 3138 3136 3136 3135 3136 3138 3139 3141 3144 3147 3148 3152 3156 3152 3155 3157 3159 3160 3161 3162 3163 3164 3165 3166 3167 3168 3169 3171 3172 3173 3174 3175 3177 3178 3179 3179 3181 3182 3182 3184 3184 3185 3185 3184
3124 3127 3130 3132 3136 3134 3133 3132 3133 3136 3136 3137 3140 3143 3145 3147 3149 3150 3152 3153 3155 3157 3159 3160 3162 3163 3164 3164 3166 3167 3168 3169 3171 3173 3174 3175 3176 3177 3179 3180 3181 3182 3183 3184 3184 3184 3185 3186 3186
3121 3124 3128 3130 3129 3129 3131 3129 3132 3133 3134 3136 3139 3141 3144 3145 3147 3149 3151 3153 3154 3156 3158 3159 3161 3162 3164 3164 3165 3166 3168 3169 3170 3172 3174 3175 3176 3177 3179 3180 3182 3183 3183 3184 3185 3185 3186 3186 3186
3118 3122 3126 3125 3123 3125 3126 3127 3128 3130 3133 3134 3137 3141 3142 3143 3145 3147 3149 3151 3153 3154 3156 3158 3160 3161 3162 3164 3165 3165 3167 3168 3170 3171 3173 3174 3176 3178 3179 3180 3181 3183 3184 3185 3186 3186 3187 3187 3187
3117 3119 3121 3120 3121 3122 3124 3126 3127 3129 3131 3133 3136 3137 3139 3141 3143 3145 3147 3149 3150 3152 3153 3155 3157 3159 3161 3162 3164 3165 3166 3167 3168 3170 3172 3174 3175 3177 3178 3180 3181 3183 3184 3186 3187 3187 3188 3188 3188
3116 3117 3118 3117 3118 3120 3122 3123 3125 3127 3129 3131 3134 3136 3137 3139 3141 3143 3145 3146 3147 3148 3150 3151 3153 3155 3158 3160 3161 3163 3164 3166 3167 3169 3171 3172 3174 3175 3177 3178 3180 3182 3184 3185 3187 3186 3188 3189 3189
3112 3115 3115 3114 3116 3117 3120 3121 3123 3125 3127 3128 3131 3133 3135 3136 3138 3140 3142 3143 3144 3145 3146 3148 3149 3152 3154 3157 3159 3161 3162 3164 3166 3168 3169 3171 3173 3174 3175 3177 3179 3181 3183 3185 3186 3186 3188 3190 3191
3109 3111 3110 3111 3113 3115 3116 3117 3120 3122 3124 3126 3128 3129 3131 3133 3135 3137 3138 3140 3141 3142 3143 3145 3147 3149 3151 3154 3156 3159 3160 3162 3163 3165 3168 3170 3171 3173 3174 3176 3177 3179 3181 3184 3185 3186 3187 3190 3191
3106 3108 3107 3108 3110 3112 3113 3114 3116 3118 3120 3122 3124 3126 3128 3130 3132 3134 3135 3136 3137 3139 3141 3142 3144 3146 3148 3150 3154 3155 3158 3160 3161 3163 3166 3168 3170 3171 3173 3174 3176 3178 3179 3182 3183 3185 3187 3189 3191
3099 3100 3101 3104 3106 3108 3110 3111 3113 3115 3116 3118 3120 3122 3124 3127 3129 3131 3132 3134 3135 3136 3138 3139 3141 3143 3145 3148 3150 3153 3156 3157 3159 3160 3163 3165 3167 3169 3171 3172 3174 3175 3177 3180 3181 3183 3185 3187 3190
3092 3094 3098 3100 3102 3104 3105 3107 3108 3110 3112 3115 3117 3118 3121 3123 3125 3127 3129 3130 3131 3133 3135 3136 3137 3139 3141 3143 3147 3148 3151 3153 3156 3157 3160 3162 3164 3167 3169 3171 3172 3174 3175 3177 3179 3181 3183 3185 3188
3087 3090 3093 3095 3097 3099 3101 3103 3104 3105 3110 3111 3112 3113 3116 3119 3121 3123 3124 3126 3127 3128 3130 3131 3134 3136 3138 3140 3142 3145 3147 3149 3152 3154 3156 3159 3161 3163 3166 3168 3170 3171 3173 3175 3177 3179 3181 3183 3186
3082 3086 3087 3089 3091 3093 3095 3098 3098 3101 3105 3106 3107 3109 3111 3113 3116 3118 3119 3121 3123 3125 3126 3127 3128 3131 3133 3135 3137 3140 3143 3145 3148 3150 3153 3155 3158 3160 3163 3165 3167 3169 3171 3173 3175 3177 3179 3181 3183
3076 3080 3081 3082 3084 3086 3089 3091 3090 3098 3100 3101 3102 3104 3106 3107 3110 3111 3114 3117 3118 3120 3122 3122 3124 3125 3127 3130 3132 3134 3137 3141 3143 3146 3149 3151 3154 3156 3159 3162 3164 3166 3168 3170 3172 3174 3176 3178 3181
3069 3073 3073 3073 3077 3078 3082 3081 3079 3094 3092 3094 3096 3098 3099 3100 3103 3105 3108 3110 3112 3113 3115 3116 3118 3119 3120 3123 3126 3128 3131 3134 3137 3141 3144 3147 3150 3152 3155 3157 3160 3163 3165 3167 3168 3171 3173 3175 3177
3061 3064 3063 3065 3070 3071 3077 3068 3075 3083 3084 3087 3088 3091 3092 3094 3096 3098 3100 3102 3104 3105 3107 3109 3111 3113 3115 3117 3119 3122 3125 3127 3130 3134 3136 3141 3144 3147 3150 3154 3156 3159 3161 3163 3165 3168 3170 3172 3175
3049 3049 3054 3061 3060 3065 3066 3064 3067 3072 3076 3078 3080 3082 3085 3088 3089 3092 3093 3093 3095 3097 3099 3101 3103 3106 3109 3111 3113 3115 3118 3120 3124 3127 3130 3134 3138 3141 3145 3147 3151 3154 3157 3159 3161 3163 3167 3169 3172
3037 3045 3048 3049 3052 3054 3055 3056 3059 3063 3066 3070 3072 3075 3077 3078 3081 3082 3084 3085 3086 3088 3090 3093 3096 3099 3102 3103 3106 3108 3111 3114 3117 3121 3124 3127 3131 3135 3138 3139 3145 3148 3151 3154 3157 3159 3162 3164 3167
3036 3036 3039 3041 3044 3048 3048 3050 3053 3057 3060 3064 3065 3063 3065 3068 3071 3073 3075 3075 3076 3079 3082 3085 3088 3091 3093 3096 3098 3102 3104 3108 3110 3114 3117 3119 3123 3127 3130 3135 3136 3140 3144 3148 3150 3153 3156 3159 3162
3025 3026 3031 3036 3037 3041 3042 3041 3044 3049 3054 3050 3052 3055 3057 3060 3062 3064 3065 3065 3066 3070 3073 3075 3079 3082 3085 3088 3091 3093 3097 3100 3102 3105 3109 3113 3118 3121 3124 3129 3130 3134 3137 3139 3144 3147 3150 3153 3156
3012 3016 3027 3033 3032 3034 3036 3035 3039 3040 3041 3041 3042 3045 3048 3049 3050 3052 3052 3053 3056 3059 3063 3066 3071 3075 3077 3080 3081 3084 3086 3090 3091 3098 3101 3105 3109 3112 3116 3120 3124 3127 3130 3133 3137 3140 3143 3148 3152
3004 3012 3022 3026 3028 3031 3034 3028 3031 3029 3032 3032 3033 3036 3038 3039 3039 3040 3039 3040 3044 3049 3053 3057 3062 3066 3069 3071 3073 3076 3081 3083 3088 3092 3095 3098 3100 3104 3109 3112 3114 3117 3120 3125 3130 3132 3137 3142 3144
2995 3008 3012 3020 3023 3027 3028 3032 3025 3024 3025 3025 3026 3027 3028 3029 3030 3031 3030 3030 3034 3039 3043 3048 3053 3057 3061 3063 3067 3069 3072 3077 3079 3082 3085 3089 3092 3094 3099 3103 3106 3108 3111 3116 3122 3127 3128 3133 3137
2996 3000 3008 3012 3017 3015 3014 3023 3018 3018 3017 3018 3019 3020 3019 3020 3022 3024 3024 3026 3028 3033 3037 3041 3045 3049 3053 3056 3059 3062 3066 3069 3071 3075 3077 3081 3084 3087 3090 3093 3095 3099 3103 3105 3111 3117 3120 3125 3131
2987 2991 2998 3001 3002 2994 3004 3014 3014 3011 3012 3012 3013 3013 3014 3015 3016 3018 3020 3021 3024 3027 3030 3034 3038 3041 3044 3048 3052 3056 3059 3061 3064 3068 3071 3072 3076 3078 3081 3085 3087 3089 3094 3098 3101 3105 3110 3117 3123
2971 2976 2975 2978 2984 2989 3002 3002 3006 3007 3008 3008 3008 3009 3010 3010 3012 3013 3015 3016 3018 3021 3024 3027 3032 3035 3038 3042 3046 3049 3052 3055 3058 3061 3064 3065 3067 3070 3073 3075 3078 3080 3083 3087 3092 3094 3101 3106 3111
2961 2963 2973 2977 2979 2982 2992 3002 3005 3004 3004 3004 3005 3005 3006 3007 3008 3009 3011 3013 3015 3017 3019 3023 3025 3029 3033 3036 3040 3044 3047 3050 3053 3055 3056 3058 3057 3058 3060 3062 3064 3067 3069 3074 3078 3082 3090 3096 3102
2954 2962 2963 2968 2971 2973 2985 2995 2999 3000 3000 3000 3000 3001 3002 3004 3005 3006 3007 3009 3012 3014 3016 3019 3022 3024 3028 3032 3034 3037 3041 3044 3046 3047 3048 3047 3046 3044 3044 3047 3050 3052 3056 3062 3067 3073 3082 3086 3094
2947 2951 2955 2958 2961 2956 2974 2994 2995 2993 2995 2996 2997 2997 2998 2999 3001 3002 3003 3005 3007 3010 3012 3015 3018 3020 3023 3026 3028 3032 3035 3037 3038 3041 3041 3038 3034 3031 3033 3036 3039 3043 3049 3054 3059 3067 3074 3079 3086
2948 2950 2948 2946 2955 2959 2960 2989 2990 2991 2993 2993 2992 2992 2992 2994 2996 2998 3000 3002 3003 3006 3008 3010 3014 3016 3018 3022 3024 3026 3029 3031 3032 3033 3032 3030 3026 3025 3026 3027 3034 3036 3043 3047 3053 3060 3066 3073 3079